Visalia, CA

6:09 AM PST on December 09, 2019 (GMT -0800)
Visalia Municipal

Weather History for KVIS - July, 2019

Change the Weather History Date:

Monday, July 15, 2019

  Actual Average Record
Temperature  
Mean Temperature 80 °F -  
Max Temperature 98 °F 97 °F 111 °F (1936)
Min Temperature 62 °F 67 °F 55 °F (2011)
Cooling Degree Days 15    
Growing Degree Days 30 (Base 50)    
Moisture  
Dew Point 57 °F    
Average Humidity 47    
Maximum Humidity 81    
Minimum Humidity 25    
Precipitation  
Precipitation 0.00 in - - ()
Sea Level Pressure  
Sea Level Pressure 29.93 in    
Wind  
Wind Speed 8 mph (WNW)    
Max Wind Speed 14 mph    
Max Gust Speed 17 mph    
Visibility 10 miles    
Events      
Averages and records for this station are not official NWS values.
T = Trace of Precipitation, MM = Missing Value Source: NWS Daily Summary

Daily Weather History Graph

Daily Weather History Graph

Search for Another Location

Airport or City:

Astronomy

Jul. 15, 2019 Rise Set
Actual Time 5:51 AM PDT 8:15 PM PDT
Civil Twilight 5:21 AM PDT 8:44 PM PDT
Nautical Twilight 4:45 AM PDT 9:21 PM PDT
Astronomical Twilight 4:05 AM PDT 10:01 PM PDT
Moon 7:36 PM PDT (7/15) 4:43 AM PDT (7/15)
Length of Visible Light 15h 23m
Length of Day
14h 23m
Waxing Gibbous, 99% of the Moon is Illuminated
Jul 15
Waxing Gibbous
Jul 16
Full
Jul 24
Last Quarter
Jul 31
New
Aug 7
First Quarter

Hourly Weather History & Observations

Time (PDT) Temp. Heat Index Dew Point Humidity Pressure Visibility Wind Dir Wind Speed Gust Speed Precip Events Conditions
12:56 AM 73.9 °F - 55.0 °F 52% 29.95 in 10.0 mi NW 11.5 mph - N/A   Clear
1:56 AM 71.1 °F - 55.9 °F 59% 29.95 in 10.0 mi NNW 5.8 mph - N/A   Clear
2:56 AM 69.1 °F - 55.0 °F 61% 29.94 in 10.0 mi NW 4.6 mph - N/A   Clear
3:56 AM 64.0 °F - 55.9 °F 75% 29.95 in 10.0 mi SE 3.5 mph - N/A   Clear
4:56 AM 63.0 °F - 57.0 °F 81% 29.96 in 10.0 mi South 6.9 mph - N/A   Clear
5:56 AM 62.1 °F - 55.9 °F 80% 29.97 in 10.0 mi ESE 5.8 mph - N/A   Clear
6:56 AM 64.9 °F - 57.0 °F 75% 29.99 in 10.0 mi Calm Calm - N/A   Clear
7:56 AM 71.1 °F - 57.0 °F 61% 30.00 in 10.0 mi South 3.5 mph - N/A   Clear
8:56 AM 75.0 °F - 55.9 °F 51% 30.00 in 10.0 mi South 4.6 mph - N/A   Clear
9:56 AM 80.1 °F 80.1 °F 55.0 °F 42% 30.00 in 10.0 mi WSW 4.6 mph - N/A   Clear
10:56 AM 84.9 °F 83.6 °F 55.0 °F 36% 29.99 in 10.0 mi NW 8.1 mph - N/A   Clear
11:56 AM 88.0 °F 86.9 °F 57.9 °F 36% 29.98 in 8.0 mi West 6.9 mph - N/A   Clear
12:56 PM 90.0 °F 88.8 °F 57.9 °F 34% 29.97 in 10.0 mi West 12.7 mph - N/A   Clear
1:56 PM 93.0 °F 91.4 °F 55.9 °F 29% 29.94 in 10.0 mi NW 12.7 mph - N/A   Clear
2:56 PM 95.0 °F 93.4 °F 55.9 °F 27% 29.92 in 10.0 mi NNW 10.4 mph 17.3 mph N/A   Clear
3:56 PM 96.1 °F 94.8 °F 57.0 °F 27% 29.89 in 10.0 mi WNW 8.1 mph - N/A   Clear
4:56 PM 98.1 °F 97.2 °F 57.9 °F 26% 29.87 in 10.0 mi WNW 11.5 mph - N/A   Clear
5:56 PM 97.0 °F 95.3 °F 55.9 °F 25% 29.85 in 10.0 mi WNW 12.7 mph - N/A   Clear
6:56 PM 95.0 °F 93.4 °F 55.9 °F 27% 29.85 in 10.0 mi WNW 11.5 mph - N/A   Clear
7:56 PM 90.0 °F 88.8 °F 57.9 °F 34% 29.84 in 10.0 mi WNW 10.4 mph - N/A   Clear
8:56 PM 84.9 °F 84.2 °F 57.9 °F 40% 29.85 in 10.0 mi NW 9.2 mph - N/A   Clear
9:56 PM 82.0 °F 81.7 °F 57.0 °F 42% 29.86 in 10.0 mi NW 10.4 mph - N/A   Clear
10:56 PM 79.0 °F - 60.1 °F 52% 29.87 in 10.0 mi NW 13.8 mph - N/A   Clear
11:56 PM 77.0 °F - 57.0 °F 50% 29.88 in 10.0 mi NW 11.5 mph - N/A   Clear